1505768400.24,18175,14.44,73728.3,-2.55,-8.17,-8.45,0,*5F
1505768401.46,18176,14.44,73724.3,-2.55,-8.41,-8.59,0,*52
1505768402.7,18177,14.44,73726.0,-2.55,-8.45,-8.81,0,*52
1505768403.91,18178,14.44,73730.3,-2.55,-8.59,-8.67,0,*58
1505768405.13,18179,14.44,73724.0,-2.55,-8.55,-8.55,0,*54
1505768406.34,18180,14.44,73726.3,-2.55,-8.29,-8.41,0,*5C
1505768407.55,18181,14.44,73726.0,-2.55,-8.29,-8.55,0,*58
1505768408.77,18182,14.44,73728.0,-2.55,-8.41,-8.71,0,*53
1505768410.01,18183,14.44,73724.5,-2.55,-8.67,-8.81,0,*59
1505768411.23,18184,14.44,73724.3,-2.55,-8.71,-8.93,0,*5A
1505768412.48,18185,14.44,73726.8,-2.55,-8.81,-9.27,0,*5A
1505768413.72,18186,14.44,73724.3,-2.55,-9.05,-9.41,0,*54
1505768414.97,18187,14.44,73728.3,-2.55,-9.05,-9.49,0,*5D
1505768416.25,18188,14.44,73728.8,-2.59,-9.15,-9.57,0,*50
1505768417.5,18189,14.44,73726.8,-2.57,-9.11,-9.53,0,*5F
1505768418.72,18190,14.44,73728.8,-2.57,-9.31,-9.57,0,*51
1505768419.93,18191,14.44,73730.8,-2.57,-9.53,-9.71,0,*50
1505768421.15,18192,14.44,73726.0,-2.57,-9.45,-9.71,0,*54
1505768422.37,18193,14.44,73726.8,-2.57,-9.53,-9.71,0,*52
1505768423.62,18194,14.44,73728.0,-2.59,-9.61,-9.93,0,*56
1505768424.86,18195,14.44,73728.0,-2.59,-9.31,-9.83,0,*53
1505768426.11,18196,14.44,73728.0,-2.59,-9.05,-9.57,0,*5E
1505768427.34,18197,14.44,73726.3,-2.59,-9.05,-9.71,0,*5B
1505768428.57,18198,14.44,73726.0,-2.59,-9.27,-9.89,0,*53
1505768429.82,18199,14.44,73724.3,-2.59,-9.15,-9.71,0,*54
1505768431.07,18200,14.44,73726.5,-2.59,-9.27,-9.61,0,*57
1505768432.3,18201,14.44,73730.0,-2.59,-9.31,-9.75,0,*54
1505768433.52,18202,14.44,73730.3,-2.59,-9.05,-9.27,0,*57
1505768434.75,18203,14.44,73728.3,-2.59,-8.93,-9.19,0,*55
1505768435.95,18204,14.44,73724.8,-2.61,-8.93,-9.27,0,*54
1505768437.2,18205,14.44,73726.8,-2.61,-9.15,-9.57,0,*5D
1505768438.43,18206,14.44,73728.0,-2.63,-9.23,-9.89,0,*5A
1505768439.65,18207,14.44,73730.0,-2.61,-9.05,-9.61,0,*5B
1505768440.88,18208,14.44,73726.0,-2.61,-8.93,-9.45,0,*5C
1505768442.13,18209,14.44,73724.8,-2.61,-8.81,-9.37,0,*5B
1505768443.37,18210,14.44,73726.8,-2.61,-8.81,-9.37,0,*53
1505768444.63,18211,14.44,73724.3,-2.63,-8.93,-9.49,0,*5A
1505768445.88,18212,14.44,73724.8,-2.63,-9.05,-9.49,0,*57
1505768447.11,18213,14.44,73728.8,-2.61,-9.05,-9.49,0,*54
1505768448.36,18214,14.44,73728.5,-2.63,-9.23,-9.61,0,*5F
1505768449.61,18215,14.44,73724.0,-2.63,-9.19,-9.61,0,*57
1505768450.86,18216,14.44,73724.3,-2.63,-8.97,-9.53,0,*52
1505768452.11,18217,14.44,73728.8,-2.63,-9.05,-9.49,0,*52
1505768453.36,18218,14.44,73726.8,-2.63,-9.05,-9.41,0,*55
1505768454.56,18219,14.44,73728.0,-2.61,-8.93,-9.27,0,*58
1505768455.77,18220,14.44,73726.5,-2.61,-9.01,-9.19,0,*55
1505768457.0,18221,14.44,73728.0,-2.63,-8.85,-9.05,0,*56
1505768458.19,18222,14.44,73728.0,-2.61,-8.67,-9.05,0,*5B
1505768459.42,18223,14.44,73726.0,-2.63,-8.85,-9.23,0,*50
1505768460.67,18224,14.44,73730.8,-2.63,-9.19,-9.53,0,*54
1505768461.95,18225,14.44,73728.5,-2.63,-9.37,-9.49,0,*52
1505768463.17,18226,14.44,73730.0,-2.63,-9.23,-9.19,0,*51
1505768464.4,18227,14.44,73728.3,-2.63,-9.05,-9.19,0,*54
1505768465.63,18228,14.44,73724.0,-2.63,-8.85,-8.93,0,*51
1505768466.82,18229,14.44,73726.5,-2.61,-8.55,-8.93,0,*5F
1505768468.07,18230,14.44,73726.3,-2.63,-8.81,-9.05,0,*52
1505768469.27,18231,14.44,73728.3,-2.61,-8.67,-9.05,0,*59
1505768470.51,18232,14.44,73728.3,-2.63,-8.67,-8.81,0,*55
1505768471.69,18233,14.44,73726.8,-2.61,-8.25,-8.55,0,*59
1505768472.92,18234,14.44,73726.8,-2.63,-8.41,-9.05,0,*5A
1505768474.17,18235,14.44,73730.3,-2.63,-8.85,-9.41,0,*53
1505768475.46,18236,14.44,73728.5,-2.63,-9.11,-9.53,0,*5F
1505768476.73,18237,14.44,73728.5,-2.63,-9.41,-9.49,0,*50
1505768477.95,18238,14.44,73726.3,-2.61,-9.19,-9.57,0,*5F
1505768479.19,18239,14.44,73730.5,-2.63,-9.67,-10.15,0,*6B
1505768480.43,18240,14.44,73728.3,-2.63,-10.15,-10.15,0,*58
1505768481.7,18241,14.44,73726.5,-2.63,-9.61,-9.41,0,*5B
1505768482.94,18242,14.44,73724.3,-2.63,-8.81,-8.67,0,*52
1505768484.13,18243,14.44,73726.0,-2.65,-8.41,-8.93,0,*52
1505768485.37,18244,14.44,73730.0,-2.63,-9.75,-10.31,0,*64
1505768486.59,18245,14.44,73724.3,-2.63,-10.31,-10.85,0,*52
1505768487.85,18246,14.44,73726.8,-2.63,-10.45,-10.75,0,*5D
1505768489.09,18247,14.44,73724.3,-2.63,-10.27,-10.57,0,*58
1505768490.29,18248,14.44,73726.8,-2.65,-9.93,-10.23,0,*65
1505768491.51,18249,14.44,73728.8,-2.67,-9.79,-9.93,0,*51
1505768492.79,18250,14.44,73726.3,-2.67,-9.41,-9.53,0,*5E
1505768494.05,18251,14.44,73724.5,-2.67,-9.01,-9.11,0,*5D
1505768495.27,18252,14.44,73730.0,-2.67,-8.63,-8.89,0,*5B
1505768496.53,18253,14.44,73724.8,-2.67,-9.11,-9.79,0,*50
1505768497.74,18254,14.44,73724.3,-2.65,-9.67,-10.19,0,*6A
1505768498.96,18255,14.44,73726.0,-2.67,-9.67,-9.93,0,*53
1505768500.15,18256,14.44,73724.8,-2.65,-9.31,-9.23,0,*5A
1505768501.38,18257,14.44,73726.5,-2.67,-8.45,-8.85,0,*56
1505768502.57,18258,14.44,73730.3,-2.65,-8.41,-9.31,0,*51
1505768503.8,18259,14.44,73728.0,-2.67,-8.89,-9.71,0,*52
1505768505.01,18260,14.44,73726.3,-2.65,-8.71,-9.05,0,*5E
1505768506.23,18261,14.44,73730.8,-2.67,-8.41,-9.01,0,*5A
1505768507.44,18262,14.44,73724.5,-2.65,-8.93,-9.75,0,*57
1505768508.63,18263,14.44,73728.0,-2.65,-9.19,-9.19,0,*5F
1505768509.86,18264,14.44,73730.5,-2.65,-8.51,-8.85,0,*51
1505768511.08,18265,14.44,73730.0,-2.65,-8.71,-9.61,0,*59
1505768512.31,18266,14.44,73724.0,-2.65,-9.19,-9.61,0,*55
1505768513.53,18267,14.44,73730.8,-2.65,-9.15,-9.31,0,*5D
1505768514.73,18268,14.44,73724.8,-2.65,-8.85,-8.93,0,*53
1505768515.92,18269,14.44,73726.3,-2.65,-8.37,-8.55,0,*51
1505768517.14,18270,14.44,73726.8,-2.65,-8.25,-8.51,0,*5E
1505768518.33,18271,14.44,73728.3,-2.65,-8.29,-8.71,0,*51
1505768519.52,18272,14.44,73728.5,-2.65,-8.29,-8.71,0,*52
1505768520.75,18273,14.44,73730.5,-2.67,-8.41,-8.89,0,*58
1505768521.94,18274,14.44,73728.0,-2.65,-8.67,-9.19,0,*51
1505768523.14,18275,14.44,73728.3,-2.65,-8.93,-9.05,0,*56
1505768524.36,18276,14.44,73726.0,-2.65,-8.71,-8.81,0,*54
1505768525.59,18277,14.44,73726.8,-2.65,-9.11,-9.67,0,*5B
1505768526.79,18278,14.44,73726.0,-2.65,-9.79,-9.75,0,*59
1505768528.0,18279,14.44,73726.3,-2.65,-8.93,-8.85,0,*53
1505768529.21,18280,14.44,73728.0,-2.65,-8.51,-8.67,0,*57
1505768530.4,18281,14.44,73730.3,-2.65,-8.37,-8.67,0,*56
1505768531.59,18282,14.44,73726.5,-2.65,-8.37,-8.67,0,*55
1505768532.81,18283,14.44,73726.3,-2.67,-8.45,-8.97,0,*5C
1505768534.01,18284,14.44,73726.8,-2.65,-8.59,-8.93,0,*50
1505768535.21,18285,14.44,73724.0,-2.65,-9.05,-9.67,0,*53
1505768536.48,18286,14.44,73724.3,-2.67,-9.37,-9.49,0,*5F
1505768537.71,18287,14.44,73726.3,-2.65,-8.93,-9.49,0,*53
1505768538.94,18288,14.44,73728.0,-2.65,-9.05,-9.41,0,*5A
1505768540.17,18289,14.44,73726.5,-2.63,-8.85,-9.05,0,*54
1505768541.41,18290,14.44,73728.0,-2.63,-8.67,-9.11,0,*55
1505768542.64,18291,14.44,73728.3,-2.63,-8.41,-8.93,0,*5B
1505768543.84,18292,14.44,73730.0,-2.65,-8.55,-8.97,0,*5F
1505768545.03,18293,14.44,73728.3,-2.65,-8.67,-8.93,0,*5B
1505768546.22,18294,14.44,73728.0,-2.65,-8.59,-9.31,0,*58
1505768547.41,18295,14.44,73730.5,-2.65,-8.97,-9.31,0,*5B
1505768548.61,18296,14.44,73728.3,-2.65,-8.71,-8.93,0,*59
1505768549.84,18297,14.44,73730.0,-2.65,-8.71,-9.53,0,*55
1505768551.06,18298,14.44,73730.0,-2.65,-9.31,-9.61,0,*5E
1505768552.29,18299,14.44,73730.5,-2.65,-8.97,-9.41,0,*50
1505768553.49,18300,14.44,73726.3,-2.65,-8.85,-9.19,0,*5F
1505768554.68,18301,14.44,73726.0,-2.65,-8.67,-8.97,0,*55
1505768555.9,18302,14.44,73730.8,-2.65,-8.67,-9.11,0,*59
1505768557.13,18303,14.44,73726.5,-2.63,-8.71,-9.23,0,*58
1505768558.35,18304,14.44,73728.5,-2.65,-8.71,-9.49,0,*55
1505768559.58,18305,14.44,73728.8,-2.65,-9.11,-9.67,0,*5F
1505768560.78,18306,14.44,73728.0,-2.65,-9.23,-9.75,0,*5E
1505768562.03,18307,14.44,73730.3,-2.65,-9.11,-9.61,0,*5B
1505768563.23,18308,14.44,73728.3,-2.65,-9.05,-9.79,0,*58
1505768564.49,18309,14.44,73726.3,-2.67,-9.45,-9.93,0,*5B
1505768565.71,18310,14.44,73728.3,-2.65,-9.61,-10.05,0,*60
1505768566.92,18311,14.44,73728.0,-2.65,-9.61,-9.89,0,*5D
1505768568.17,18312,14.44,73726.0,-2.67,-9.57,-10.05,0,*65
1505768569.4,18313,14.44,73728.0,-2.67,-9.71,-10.09,0,*6C
1505768570.64,18314,14.44,73730.5,-2.67,-9.57,-9.79,0,*50
1505768571.9,18315,14.44,73728.5,-2.67,-9.15,-9.71,0,*5F
1505768573.15,18316,14.44,73728.0,-2.67,-9.37,-9.93,0,*50
1505768574.35,18317,14.44,73728.0,-2.65,-9.23,-9.67,0,*5D
1505768575.58,18318,14.44,73728.3,-2.67,-9.01,-9.71,0,*57
1505768576.86,18319,14.44,73730.8,-2.67,-9.41,-9.83,0,*5F
1505768578.12,18320,14.44,73724.8,-2.67,-9.01,-9.37,0,*5E
1505768579.33,18321,14.44,73730.3,-2.65,-8.81,-9.19,0,*58
1505768580.56,18322,14.44,73730.3,-2.67,-8.63,-9.23,0,*5C
1505768581.81,18323,14.44,73730.3,-2.67,-8.85,-9.37,0,*50
1505768583.04,18324,14.44,73728.8,-2.67,-8.97,-9.67,0,*51
1505768584.26,18325,14.44,73730.0,-2.67,-9.27,-9.97,0,*55
1505768585.49,18326,14.44,73730.3,-2.65,-9.49,-10.01,0,*6B
1505768586.72,18327,14.44,73730.0,-2.65,-9.41,-9.89,0,*5A
1505768587.97,18328,14.44,73728.3,-2.67,-9.23,-9.53,0,*54
1505768589.22,18329,14.44,73730.5,-2.67,-9.57,-10.53,0,*6E
1505768590.48,18330,14.44,73726.5,-2.67,-11.23,-11.97,0,*55
1505768591.76,18331,14.44,73724.5,-2.67,-11.37,-11.63,0,*5A
1505768593.01,18332,14.44,73730.0,-2.69,-10.63,-10.53,0,*55
1505768594.21,18333,14.44,73730.8,-2.69,-9.79,-10.05,0,*64
1505768595.45,18334,14.44,73726.3,-2.69,-9.71,-9.83,0,*5D
1505768596.67,18335,14.44,73724.8,-2.69,-9.23,-9.57,0,*52
1505768597.93,18336,14.44,73728.3,-2.73,-9.15,-9.61,0,*5A
1505768599.15,18337,14.44,73730.8,-2.73,-8.93,-9.49,0,*5E
1505768600.37,18338,14.44,73728.8,-2.69,-9.01,-9.67,0,*5C
1505768601.62,18339,14.44,73728.3,-2.67,-9.01,-9.53,0,*54
1505768602.88,18340,14.44,73728.3,-2.67,-9.11,-9.67,0,*5C
1505768604.12,18341,14.44,73724.3,-2.69,-9.11,-10.05,0,*6F
1505768605.38,18342,14.44,73730.5,-2.69,-9.53,-10.41,0,*6A
1505768606.63,18343,14.44,73726.5,-2.69,-9.37,-9.83,0,*5F
1505768607.85,18344,14.44,73728.0,-2.69,-8.89,-9.71,0,*51
1505768609.13,18345,14.44,73730.8,-2.67,-9.45,-10.67,0,*60
1505768610.36,18346,14.44,73728.5,-2.69,-11.19,-11.77,0,*5D
1505768611.57,18347,14.44,73730.8,-2.73,-10.35,-10.85,0,*54
1505768612.81,18348,14.44,73730.0,-2.69,-10.31,-10.79,0,*57
1505768614.02,18349,14.44,73728.3,-2.73,-10.57,-11.11,0,*52
1505768615.28,18350,14.44,73728.3,-2.69,-10.67,-11.59,0,*5E
1505768616.52,18351,14.44,73724.3,-2.73,-10.71,-11.41,0,*5A
1505768617.78,18352,14.44,73728.3,-2.73,-11.07,-11.67,0,*5D
1505768619.01,18353,14.44,73726.0,-2.73,-11.23,-11.77,0,*5B
1505768620.28,18354,14.44,73724.8,-2.73,-11.63,-12.35,0,*5D
1505768621.51,18355,14.44,73724.0,-2.73,-12.03,-12.75,0,*5D
1505768622.74,18356,14.44,73724.8,-2.73,-12.03,-12.65,0,*5F
1505768624.02,18357,14.44,73724.8,-2.75,-11.89,-12.61,0,*5D
1505768625.31,18358,14.44,73724.8,-2.75,-11.37,-11.93,0,*59
1505768626.57,18359,14.44,73728.8,-2.77,-11.59,-12.39,0,*51
1505768627.83,18360,14.44,73726.3,-2.77,-11.73,-12.39,0,*53
1505768629.09,18361,14.44,73726.3,-2.77,-11.41,-11.93,0,*50
1505768630.35,18362,14.44,73726.8,-2.77,-10.01,-10.41,0,*58
1505768631.6,18363,14.44,73728.8,-2.77,-9.11,-9.75,0,*5F
1505768632.84,18364,14.44,73728.5,-2.77,-8.97,-10.19,0,*65
1505768634.07,18365,14.44,73726.5,-2.77,-9.79,-10.57,0,*6F
1505768635.3,18366,14.44,73728.5,-2.77,-10.05,-10.97,0,*53
1505768636.55,18367,14.44,73730.3,-2.77,-9.75,-10.63,0,*66
1505768637.79,18368,14.44,73730.0,-2.75,-10.01,-10.93,0,*5F
1505768639.05,18369,14.44,73728.0,-2.77,-10.19,-10.75,0,*5D
1505768640.29,18370,14.44,73730.5,-2.77,-9.89,-10.71,0,*60
1505768641.55,18371,14.44,73734.0,-2.77,-9.75,-10.63,0,*61
1505768642.8,18372,14.44,73728.5,-2.77,-9.79,-10.75,0,*69
1505768644.06,18373,14.44,73728.3,-2.77,-9.75,-10.63,0,*63
1505768645.32,18374,14.44,73730.5,-2.77,-9.37,-10.31,0,*65
1505768646.55,18375,14.44,73726.3,-2.79,-9.45,-10.45,0,*6C
1505768647.78,18376,14.44,73728.0,-2.79,-9.49,-10.19,0,*6A
1505768648.99,18377,14.44,73730.8,-2.79,-9.31,-9.93,0,*5E
1505768650.22,18378,14.44,73726.5,-2.79,-9.41,-10.01,0,*65
1505768651.45,18379,14.44,73724.3,-2.79,-9.53,-10.01,0,*67
1505768652.69,18380,14.44,73730.0,-2.79,-9.49,-10.01,0,*6A
1505768653.9,18381,14.44,73726.8,-2.79,-10.01,-10.97,0,*50
1505768655.11,18382,14.44,73728.0,-2.79,-10.57,-11.15,0,*5B
1505768656.34,18383,14.44,73730.8,-2.79,-10.85,-11.73,0,*55
1505768657.57,18384,14.44,73728.0,-2.79,-11.41,-11.97,0,*51
1505768658.85,18385,14.44,73724.3,-2.81,-11.29,-12.15,0,*50
1505768660.12,18386,14.44,73728.0,-2.79,-11.29,-12.15,0,*54
1505768661.37,18387,14.44,73726.0,-2.81,-10.93,-11.51,0,*51
1505768662.61,18388,14.44,73726.5,-2.79,-10.41,-10.97,0,*5D
1505768663.84,18389,14.44,73726.3,-2.81,-10.23,-10.97,0,*5F
1505768665.09,18390,14.44,73728.8,-2.81,-10.49,-11.33,0,*54
1505768666.35,18391,14.44,73726.5,-2.81,-10.67,-11.45,0,*58
1505768667.61,18392,14.44,73726.5,-2.83,-10.79,-11.55,0,*57
1505768668.84,18393,14.44,73726.8,-2.83,-10.93,-11.51,0,*56
1505768670.05,18394,14.44,73724.8,-2.83,-10.57,-10.97,0,*52
1505768671.27,18395,14.44,73728.0,-2.83,-10.53,-11.55,0,*58
1505768672.5,18396,14.44,73726.5,-2.83,-11.11,-12.15,0,*5B
1505768673.76,18397,14.44,73724.0,-2.83,-10.79,-11.63,0,*57
1505768674.97,18398,14.44,73726.5,-2.83,-10.27,-10.97,0,*59
1505768676.19,18399,14.44,73722.8,-2.83,-10.49,-11.33,0,*5F
1505768677.45,18400,14.44,73726.5,-2.83,-10.79,-11.51,0,*5F
1505768678.7,18401,14.44,73726.8,-2.83,-10.71,-11.33,0,*52
1505768679.96,18402,14.44,73724.8,-2.83,-10.71,-11.07,0,*56
1505768681.16,18403,14.44,73724.5,-2.83,-10.35,-10.85,0,*5C
1505768682.42,18404,14.44,73726.5,-2.85,-10.09,-10.79,0,*51
1505768683.65,18405,14.44,73730.0,-2.85,-10.27,-11.19,0,*5B
1505768684.88,18406,14.44,73726.0,-2.83,-10.41,-11.19,0,*5E
1505768686.13,18407,14.44,73728.3,-2.85,-10.49,-11.33,0,*59
1505768687.37,18408,14.44,73724.8,-2.83,-10.93,-11.89,0,*56
1505768688.64,18409,14.44,73724.3,-2.85,-10.97,-11.63,0,*51
1505768689.87,18410,14.44,73726.3,-2.85,-10.57,-11.23,0,*51
1505768691.14,18411,14.44,73728.8,-2.85,-10.41,-11.23,0,*57
1505768692.39,18412,14.44,73726.8,-2.85,-10.53,-11.55,0,*56
1505768693.69,18413,14.44,73726.8,-2.85,-10.67,-11.63,0,*55
1505768694.94,18414,14.44,73726.3,-2.85,-11.11,-11.81,0,*5E
1505768696.21,18415,14.44,73730.0,-2.85,-11.33,-12.03,0,*56
1505768697.47,18416,14.44,73724.3,-2.85,-11.11,-11.89,0,*54
1505768698.7,18417,14.44,73724.8,-2.87,-11.23,-11.81,0,*5E
1505768699.94,18418,14.44,73726.5,-2.87,-11.01,-11.73,0,*5C
1505768701.18,18419,14.44,73726.8,-2.87,-10.97,-11.85,0,*5A
1505768702.41,18420,14.44,73730.8,-2.87,-11.11,-11.93,0,*58
1505768703.67,18421,14.44,73726.3,-2.89,-11.23,-11.97,0,*52
1505768704.93,18422,14.44,73726.5,-2.89,-11.23,-12.11,0,*5C
1505768706.17,18423,14.44,73728.5,-2.87,-11.15,-11.93,0,*5F
1505768707.43,18424,14.44,73726.5,-2.89,-11.11,-11.93,0,*52
1505768708.67,18425,14.44,73728.0,-2.89,-11.41,-12.21,0,*5C
1505768709.93,18426,14.44,73724.0,-2.89,-11.59,-12.21,0,*56
1505768711.19,18427,14.44,73724.5,-2.89,-11.59,-12.21,0,*57
1505768712.46,18428,14.44,73722.0,-2.91,-11.63,-12.57,0,*59
1505768713.72,18429,14.44,73726.0,-2.91,-11.63,-12.35,0,*5C
1505768714.94,18430,14.44,73724.0,-2.91,-11.45,-12.03,0,*55
1505768716.18,18431,14.44,73728.0,-2.91,-11.01,-11.85,0,*59
1505768717.45,18432,14.44,73724.8,-2.91,-11.59,-12.75,0,*5B
1505768718.71,18433,14.44,73722.8,-2.95,-11.59,-12.61,0,*5B
1505768719.97,18434,14.44,73726.3,-2.91,-11.63,-12.57,0,*54
1505768721.24,18435,14.44,73724.3,-2.95,-11.77,-12.75,0,*54
1505768722.49,18436,14.44,73724.8,-2.95,-11.73,-12.61,0,*56
1505768723.73,18437,14.44,73726.8,-2.95,-11.59,-12.47,0,*5B
1505768724.97,18438,14.44,73726.0,-2.95,-11.63,-12.47,0,*5D
1505768726.23,18439,14.44,73724.8,-2.95,-11.63,-12.57,0,*5D
1505768727.49,18440,14.44,73724.8,-2.95,-11.59,-12.35,0,*5E
1505768728.78,18441,14.44,73724.3,-2.97,-11.33,-11.89,0,*55
1505768730.04,18442,14.44,73726.0,-2.97,-11.07,-12.03,0,*50
1505768731.32,18443,14.44,73722.5,-2.97,-11.55,-12.15,0,*51
1505768732.6,18444,14.44,73726.0,-2.97,-10.79,-11.33,0,*5E
1505768733.88,18445,14.44,73724.5,-2.97,-10.79,-11.89,0,*5E
1505768735.17,18446,14.44,73724.8,-2.97,-11.63,-12.07,0,*52
1505768736.43,18447,14.44,73726.0,-2.97,-10.63,-11.11,0,*56
1505768737.69,18448,14.44,73726.5,-2.97,-10.35,-11.07,0,*5D
1505768738.95,18449,14.44,73724.5,-2.99,-11.07,-12.15,0,*52
1505768740.18,18450,14.44,73722.8,-2.99,-11.37,-12.21,0,*5E
1505768741.44,18451,14.44,73722.8,-2.97,-11.11,-11.77,0,*55
1505768742.67,18452,14.44,73724.5,-2.97,-10.49,-11.19,0,*52
1505768743.92,18453,14.44,73724.5,-2.97,-10.85,-11.81,0,*52
1505768745.18,18454,14.44,73720.8,-2.97,-10.97,-11.77,0,*5F
1505768746.43,18455,14.44,73730.0,-2.97,-10.79,-11.11,0,*5E
1505768747.69,18456,14.44,73726.5,-2.97,-9.75,-10.41,0,*6D
1505768748.95,18457,14.44,73724.5,-2.97,-10.53,-11.63,0,*51
1505768750.24,18458,14.44,73724.8,-2.97,-11.63,-12.35,0,*5C
1505768751.49,18459,14.38,73720.3,-2.97,-11.37,-12.03,0,*59
1505768752.78,18460,14.44,73726.0,-2.97,-11.63,-12.07,0,*56
1505768754.01,18461,14.44,73722.3,-2.97,-10.49,-11.23,0,*5B
1505768755.29,18462,14.44,73720.5,-2.97,-10.71,-11.55,0,*52
1505768756.55,18463,14.44,73720.0,-2.97,-11.11,-11.67,0,*55
1505768757.83,18464,14.44,73726.0,-2.97,-11.55,-12.15,0,*54
1505768759.09,18465,14.44,73724.3,-2.99,-11.93,-12.65,0,*56
1505768760.36,18466,14.44,73726.0,-2.99,-12.15,-12.75,0,*59
1505768761.56,18467,14.44,73722.0,-2.99,-10.85,-11.45,0,*53
1505768762.78,18468,14.44,73720.8,-2.99,-10.15,-10.97,0,*5B
1505768764.0,18469,14.44,73722.8,-2.99,-11.45,-12.21,0,*51
1505768765.26,18470,14.44,73722.3,-2.99,-11.77,-12.61,0,*5C
1505768766.54,18471,14.44,73722.8,-2.97,-12.15,-12.75,0,*51
1505768767.77,18472,14.44,73726.5,-2.99,-11.19,-12.07,0,*56
1505768769.03,18473,14.44,73722.5,-2.99,-11.37,-11.81,0,*56
1505768770.29,18474,14.44,73726.8,-2.97,-10.93,-11.55,0,*59
1505768771.52,18475,14.44,73724.8,-2.99,-10.93,-11.77,0,*56
1505768772.78,18476,14.44,73720.8,-2.99,-12.07,-12.79,0,*57
1505768774.04,18477,14.44,73726.8,-2.99,-11.81,-12.61,0,*52
1505768775.29,18478,14.44,73722.5,-2.97,-11.81,-12.47,0,*57
1505768776.55,18479,14.44,73720.3,-2.99,-11.33,-11.81,0,*58
1505768777.75,18480,14.44,73720.5,-2.99,-11.19,-11.45,0,*5E
1505768778.96,18481,14.44,73720.3,-2.99,-10.27,-11.19,0,*5A
1505768780.19,18482,14.44,73722.0,-2.99,-11.19,-11.67,0,*5C
1505768781.4,18483,14.44,73718.0,-2.99,-10.49,-10.93,0,*53
1505768782.61,18484,14.44,73722.5,-2.99,-10.27,-11.23,0,*56
1505768783.86,18485,14.44,73722.3,-2.97,-11.19,-12.07,0,*50
1505768785.1,18486,14.44,73722.3,-2.99,-11.67,-12.03,0,*50
1505768786.34,18487,14.44,73722.3,-2.99,-10.67,-10.93,0,*5B
1505768787.57,18488,14.44,73722.8,-2.99,-9.83,-10.35,0,*6A
1505768788.77,18489,14.44,73720.0,-2.99,-10.01,-10.93,0,*55
1505768790.01,18490,14.44,73720.5,-2.99,-10.63,-11.45,0,*53
1505768791.24,18491,14.44,73720.3,-2.97,-10.49,-11.19,0,*5D
1505768792.45,18492,14.44,73722.3,-2.99,-10.53,-10.97,0,*5C
1505768793.7,18493,14.44,73724.8,-2.99,-11.81,-12.53,0,*59
1505768794.94,18494,14.44,73722.3,-2.99,-12.21,-12.65,0,*52
1505768796.2,18495,14.44,73722.3,-2.99,-11.55,-11.67,0,*52
1505768797.43,18496,14.44,73724.0,-2.99,-11.19,-11.51,0,*5C
1505768798.7,18497,14.44,73720.3,-3.01,-11.01,-11.73,0,*54
1505768799.99,18498,14.44,73716.0,-3.01,-11.59,-12.07,0,*56
1505768801.25,18499,14.44,73722.0,-3.01,-11.01,-11.67,0,*5F
1505768802.49,18500,14.44,73720.5,-3.01,-10.45,-11.01,0,*5F
1505768803.71,18501,14.44,73722.0,-3.01,-10.05,-10.53,0,*5C
1505768804.97,18502,14.44,73720.5,-3.01,-9.89,-10.41,0,*60
1505768806.19,18503,14.44,73724.3,-2.99,-9.57,-10.23,0,*66
1505768807.41,18504,14.44,73722.8,-2.99,-9.89,-10.63,0,*66
1505768808.68,18505,14.44,73722.0,-2.99,-10.63,-11.55,0,*5F
1505768809.94,18506,14.44,73726.5,-2.97,-10.97,-11.63,0,*5C
1505768811.17,18507,14.44,73724.3,-2.99,-10.85,-11.37,0,*51
1505768812.42,18508,14.44,73720.8,-2.99,-10.79,-11.33,0,*59
1505768813.65,18509,14.44,73720.5,-2.99,-10.41,-10.85,0,*5F
1505768814.88,18510,14.44,73722.5,-2.99,-10.09,-10.79,0,*58
1505768816.17,18511,14.44,73726.0,-2.97,-10.67,-11.77,0,*50
1505768817.43,18512,14.44,73720.8,-2.97,-11.45,-12.07,0,*56
1505768818.69,18513,14.44,73722.8,-2.99,-11.37,-11.67,0,*59
1505768819.93,18514,14.44,73720.3,-2.99,-10.67,-11.23,0,*5A
1505768821.19,18515,14.44,73720.8,-2.99,-10.79,-11.07,0,*52
1505768822.43,18516,14.44,73720.5,-2.99,-10.15,-10.63,0,*58
1505768823.7,18517,14.44,73722.8,-2.97,-10.23,-10.67,0,*56
1505768824.95,18518,14.44,73724.8,-2.99,-10.71,-11.77,0,*50
1505768826.21,18519,14.44,73724.0,-2.99,-11.81,-12.61,0,*5B
1505768827.44,18520,14.44,73720.3,-2.99,-11.89,-12.47,0,*5D
1505768828.71,18521,14.44,73722.8,-3.01,-12.07,-12.39,0,*50
1505768829.97,18522,14.44,73722.0,-3.01,-11.15,-11.59,0,*56
1505768831.2,18523,14.44,73724.0,-2.99,-10.71,-11.11,0,*58
1505768832.41,18524,14.44,73724.0,-2.99,-10.27,-10.93,0,*57
1505768833.64,18525,14.44,73726.5,-2.99,-10.93,-11.81,0,*5B
1505768834.9,18526,14.44,73724.8,-2.99,-11.51,-11.89,0,*5F
1505768836.19,18527,14.44,73722.5,-3.01,-11.29,-11.85,0,*5D
1505768837.42,18528,14.44,73726.5,-3.03,-11.15,-11.51,0,*56
1505768838.68,18529,14.44,73722.0,-3.01,-11.11,-11.73,0,*51
1505768839.95,18530,14.44,73724.3,-3.01,-11.01,-11.37,0,*58
1505768841.16,18531,14.44,73722.8,-3.03,-10.19,-10.89,0,*57
1505768842.44,18532,14.44,73722.3,-3.01,-10.71,-11.37,0,*5C
1505768843.71,18533,14.44,73722.3,-3.01,-10.67,-10.89,0,*5E
1505768844.95,18534,14.44,73726.0,-3.01,-10.27,-11.01,0,*5C
1505768846.21,18535,14.44,73720.8,-3.01,-10.97,-11.29,0,*5C
1505768847.47,18536,14.44,73724.0,-3.01,-10.89,-11.37,0,*5F
1505768848.7,18537,14.44,73720.5,-3.01,-10.85,-11.15,0,*52
1505768849.94,18538,14.44,73726.0,-3.01,-10.57,-11.11,0,*56
1505768851.21,18539,14.44,73724.0,-3.01,-10.97,-11.29,0,*50
1505768852.47,18540,14.44,73722.8,-3.01,-10.97,-11.29,0,*5E
1505768853.72,18541,14.44,73726.0,-3.01,-11.01,-11.41,0,*5F
1505768854.95,18542,14.44,73722.8,-3.01,-11.01,-11.23,0,*58
1505768856.22,18543,14.44,73720.5,-3.01,-10.71,-11.01,0,*5F
1505768857.47,18544,14.44,73722.3,-3.01,-10.85,-11.51,0,*56
1505768858.74,18545,14.44,73722.0,-3.01,-11.41,-11.93,0,*50
1505768859.98,18546,14.44,73720.5,-3.01,-10.85,-11.15,0,*54
1505768861.21,18547,14.44,73722.8,-3.01,-10.45,-11.01,0,*5C
1505768862.44,18548,14.44,73720.0,-3.01,-10.53,-10.97,0,*5A
1505768863.71,18549,14.44,73724.3,-3.01,-10.75,-11.41,0,*55
1505768864.99,18550,14.44,73722.8,-3.01,-11.37,-11.97,0,*51
1505768866.25,18551,14.44,73722.0,-3.01,-10.89,-11.55,0,*5A
1505768867.49,18552,14.44,73720.3,-3.03,-10.97,-11.37,0,*50
1505768868.73,18553,14.44,73722.8,-3.01,-10.45,-10.97,0,*57
1505768870.01,18554,14.44,73722.0,-3.01,-10.75,-11.73,0,*58
1505768871.27,18555,14.44,73720.0,-3.01,-11.67,-12.25,0,*5B
1505768872.51,18556,14.44,73722.8,-3.03,-11.41,-11.67,0,*5B
1505768873.75,18557,14.44,73720.0,-3.01,-10.45,-10.57,0,*5F
1505768874.99,18558,14.44,73724.3,-3.03,-10.41,-11.01,0,*54
1505768876.25,18559,14.44,73722.0,-3.01,-10.71,-11.01,0,*54
1505768877.49,18560,14.44,73720.5,-3.01,-10.45,-10.97,0,*57
1505768878.78,18561,14.44,73720.0,-3.01,-10.41,-10.71,0,*5A
1505768880.0,18562,14.44,73722.3,-3.01,-9.93,-10.53,0,*6E
1505768881.29,18563,14.44,73720.0,-3.01,-10.71,-11.37,0,*58
1505768882.5,18564,14.44,73722.3,-3.03,-10.89,-11.41,0,*5B
1505768883.73,18565,14.44,73722.3,-3.01,-10.57,-10.53,0,*59
1505768884.94,18566,14.44,73720.3,-3.03,-10.05,-10.19,0,*51
1505768886.17,18567,14.44,73724.0,-2.99,-9.67,-10.71,0,*60
1505768887.43,18568,14.44,73722.5,-3.01,-11.11,-11.97,0,*5E
1505768888.69,18569,14.44,73722.8,-3.01,-11.41,-12.11,0,*57
1505768889.99,18570,14.44,73720.0,-3.01,-11.29,-12.07,0,*56
1505768891.23,18571,14.44,73722.3,-3.01,-10.89,-10.97,0,*57
1505768892.44,18572,14.44,73722.3,-3.03,-9.75,-10.01,0,*62
1505768893.69,18573,14.44,73722.3,-3.01,-9.11,-9.93,0,*50
1505768894.95,18574,14.44,73722.8,-3.01,-9.49,-10.89,0,*69
1505768896.21,18575,14.44,73722.5,-3.01,-10.27,-11.51,0,*5C
1505768897.44,18576,14.44,73720.0,-3.01,-10.53,-11.11,0,*58
1505768898.68,18577,14.44,73720.3,-3.03,-10.15,-10.71,0,*5E
1505768899.91,18578,14.44,73720.8,-3.01,-10.53,-10.97,0,*59
1505768901.15,18579,14.44,73720.5,-3.01,-10.31,-10.89,0,*53
1505768902.42,18580,14.44,73722.8,-3.01,-10.15,-10.67,0,*53